Location: Buckeye Ditch
(40.9104°N, 122.9517°W)
Time: 14:09:38
(UTC+00:00)

SL-16 R/B - Visible Passes

Search period start: 12 July 2024 00:00
Search period end: 22 July 2024 00:00
Orbit: 984 x 1007 km, 99.7° (Epoch: 12 July)

Date Brightness Start Highest point End Pass type
(mag) Time Alt. Az. Time Alt. Az. Time Alt. Az.
12 Jul 3.5 10:17:33 10° SE 10:23:24 46° ENE 10:29:16 10° N visible
12 Jul 3.4 12:01:56 10° SSW 12:07:08 28° W 12:12:21 10° NW visible
13 Jul 5.1 09:08:37 10° E 09:11:26 13° NE 09:14:15 10° NNE visible
13 Jul 2.6 10:47:50 10° SSE 10:54:02 79° ENE 11:00:13 10° NNW visible
14 Jul 4.6 09:37:04 10° ESE 09:41:43 23° ENE 09:46:21 10° NNE visible
14 Jul 2.6 11:18:41 10° S 11:24:47 61° WSW 11:30:54 10° NNW visible
15 Jul 3.8 10:06:32 10° SE 10:12:08 38° ENE 10:17:45 10° N visible
15 Jul 3.2 11:50:08 10° SSW 11:55:41 35° W 12:01:16 10° NNW visible
16 Jul 5.3 08:58:56 10° ENE 09:00:19 11° NE 09:01:42 10° NE visible
16 Jul 2.9 10:36:37 10° SSE 10:42:42 65° ENE 10:48:48 10° N visible
16 Jul 3.8 12:22:25 10° SW 12:26:43 19° W 12:31:02 10° NW visible
17 Jul 4.8 09:26:26 10° E 09:30:31 19° ENE 09:34:37 10° NNE visible
17 Jul 2.5 11:07:15 10° S 11:13:25 75° WSW 11:19:36 10° NNW visible
18 Jul 4.1 09:55:35 10° ESE 10:00:54 31° ENE 10:06:12 10° N visible
18 Jul 2.9 11:38:26 10° S 11:44:15 43° W 11:50:06 10° NNW visible
19 Jul 3.2 10:25:27 10° SE 10:31:24 53° ENE 10:37:22 10° N visible
19 Jul 3.6 12:10:22 10° SSW 12:15:15 24° W 12:20:09 10° NW visible
20 Jul 5.0 09:15:59 10° E 09:19:21 15° NE 09:22:44 10° NNE visible
20 Jul 2.5 10:55:53 10° SSE 11:02:04 89° ENE 11:08:15 10° NNW visible
21 Jul 4.4 09:44:45 10° ESE 09:49:40 26° ENE 09:54:35 10° N visible
21 Jul 2.7 11:26:51 10° S 11:32:51 53° WSW 11:38:52 10° NNW visible
